Weather in Kholmy

Ukraine / Chernihiv Region     51°52′38″N   32°36′24″E
temp.,
°C
wind,
m/s
gust,
m/s
humid.,
%
clouds,
%
prec.,
mm/h
press.,
hPa
HPBL,
m
13 may, thu
thu1300:00+8ne2593100 1.6 1013193
03:00+8ese369496 1.6 1012255
06:00+6ese379765 0.0 1011188
09:00+9se348988 0.1 1011515
12:00+10sse4580100 0.3 1012551
15:00+15s5658100 0.3 10111643
18:00+13s5771100 0.1 1011977
21:00+11se41076100 0.2 1012267
14 may, fri
fri1400:00+11se41176100 0.0 1011287
03:00+10sse51378100 0.0 1012302
06:00+11se51273100 0.1 1011296
09:00+13ese51173100 0.1 1010337
12:00+19se6962100 0.0 10091088
15:00+20sse5765100 0.6 10071312
18:00+19sse4777100 1.9 1005645
21:00+14s36929 4.4 100693
15 may, sat
sat1500:00+12sse379310 0.1 1006127
03:00+11s499892 0.1 1006351
06:00+12ssw51096100 0.0 1007503
09:00+13ssw5993100 0.1 1009564
12:00+13ssw5991100 0.2 1011473
15:00+18ssw686667 0.8 10101451
18:00+16ssw587413 0.3 1011501
21:00+12s37905 0.3 1011117
16 may, sun
sun1600:00+11s34955 0.0 101275
03:00+10ssw35965 0.0 101394
06:00+10ssw24965 0.0 101482
09:00+16ssw23770 0.0 1014486
12:00+20ssw23590 0.0 10141198
15:00+22s33528 0.0 10131610
18:00+21s346398 0.0 10121128
21:00+16e2276100 0.0 101214
17 may, mon
mon1700:00+14e468279 0.0 101275
03:00+15e487798 0.0 1011146
06:00+13e4987100 0.0 1010155
09:00+17ene4679100 0.1 1008254
12:00+21ene1270100 1.2 1007643
15:00+24se3559100 1.2 10051494
18:00+20wsw3583100 2.9 1005159
21:00+15wnw6109798 5.9 1006356